Year,Month,Day,Hour,Minute,Value (Times are PST for temperature in C)
2010,01,21,00,00,4.70
2010,01,21,00,01,4.70
2010,01,21,00,02,4.70
2010,01,21,00,03,4.70
2010,01,21,00,04,4.70
2010,01,21,00,05,4.70
2010,01,21,00,06,4.70
2010,01,21,00,07,4.70
2010,01,21,01,08,4.40
2010,01,21,01,09,4.40
2010,01,21,01,10,4.40
2010,01,21,01,11,4.40
2010,01,21,01,12,4.40
2010,01,21,01,13,4.40
2010,01,21,01,14,4.40
2010,01,21,01,15,4.40
2010,01,21,01,16,4.40
2010,01,21,01,17,4.40
2010,01,21,01,18,4.40
2010,01,21,01,19,4.40
2010,01,21,01,20,4.40
2010,01,21,01,21,4.40
2010,01,21,01,22,4.40
2010,01,21,01,23,4.40
2010,01,21,01,24,4.40
2010,01,21,01,25,4.40
2010,01,21,01,26,4.40
2010,01,21,01,27,4.40
2010,01,21,01,28,4.40
2010,01,21,01,29,4.40
2010,01,21,01,30,4.40
2010,01,21,01,31,4.40
2010,01,21,01,32,4.40
2010,01,21,01,33,4.40
2010,01,21,01,34,4.40
2010,01,21,01,35,4.40
2010,01,21,01,36,4.40
2010,01,21,01,37,4.40
2010,01,21,01,38,4.40
2010,01,21,01,39,4.40
2010,01,21,01,40,4.40
2010,01,21,01,41,4.40
2010,01,21,01,42,4.40
2010,01,21,01,43,4.50
2010,01,21,01,44,4.50
2010,01,21,01,45,4.40
2010,01,21,01,46,4.50
2010,01,21,01,47,4.40
2010,01,21,01,48,4.40
2010,01,21,01,49,4.50
2010,01,21,01,50,4.40
2010,01,21,01,51,4.40
2010,01,21,01,52,4.40
2010,01,21,01,53,4.40
2010,01,21,01,54,4.40
2010,01,21,01,55,4.40
2010,01,21,01,56,4.40
2010,01,21,01,57,4.40
2010,01,21,01,58,4.40
2010,01,21,01,59,4.50
2010,01,21,02,00,4.50
2010,01,21,02,01,4.50
2010,01,21,02,02,4.50
2010,01,21,02,03,4.50
2010,01,21,02,04,4.50
2010,01,21,02,05,4.50
2010,01,21,02,06,4.50
2010,01,21,02,07,4.50
2010,01,21,02,08,4.50
2010,01,21,02,09,4.50
2010,01,21,02,10,4.50
2010,01,21,02,11,4.50
2010,01,21,02,12,4.50
2010,01,21,02,13,4.50
2010,01,21,02,14,4.50
2010,01,21,02,15,4.50
2010,01,21,02,16,4.50
2010,01,21,02,17,4.50
2010,01,21,02,18,4.50
2010,01,21,02,19,4.50
2010,01,21,02,20,4.50
2010,01,21,02,21,4.50
2010,01,21,02,22,4.50
2010,01,21,02,23,4.50
2010,01,21,02,24,4.50
2010,01,21,02,25,4.50
2010,01,21,02,26,4.50
2010,01,21,02,27,4.50
2010,01,21,02,28,4.50
2010,01,21,02,29,4.50
2010,01,21,02,30,4.50
2010,01,21,02,31,4.50
2010,01,21,02,32,4.60
2010,01,21,02,33,4.60
2010,01,21,02,34,4.50
2010,01,21,02,35,4.60
2010,01,21,02,36,4.60
2010,01,21,02,37,4.60
2010,01,21,02,38,4.60
2010,01,21,02,39,4.60
2010,01,21,02,40,4.60
2010,01,21,02,41,4.60
2010,01,21,02,42,4.60
2010,01,21,02,43,4.60
2010,01,21,02,44,4.60
2010,01,21,02,45,4.60
2010,01,21,02,46,4.60
2010,01,21,02,47,4.60
2010,01,21,02,48,4.60
2010,01,21,02,49,4.60
2010,01,21,02,50,4.60
2010,01,21,02,51,4.60
2010,01,21,02,52,4.60
2010,01,21,02,53,4.50
2010,01,21,02,54,4.50
2010,01,21,02,55,4.50
2010,01,21,02,56,4.50
2010,01,21,02,57,4.50
2010,01,21,02,58,4.50
2010,01,21,02,59,4.50
2010,01,21,03,00,4.50
2010,01,21,03,01,4.40
2010,01,21,03,02,4.40
2010,01,21,03,03,4.40
2010,01,21,03,04,4.40
2010,01,21,03,05,4.40
2010,01,21,03,06,4.40
2010,01,21,03,07,4.40
2010,01,21,03,08,4.40
2010,01,21,03,09,4.40
2010,01,21,03,10,4.40
2010,01,21,03,11,4.40
2010,01,21,03,12,4.40
2010,01,21,03,13,4.40
2010,01,21,03,14,4.40
2010,01,21,03,15,4.40
2010,01,21,03,16,4.40
2010,01,21,03,17,4.40
2010,01,21,03,18,4.40
2010,01,21,03,19,4.40
2010,01,21,03,20,4.40
2010,01,21,03,21,4.40
2010,01,21,03,22,4.40
2010,01,21,03,23,4.30
2010,01,21,03,24,4.30
2010,01,21,03,25,4.30
2010,01,21,03,26,4.30
2010,01,21,03,27,4.30
2010,01,21,03,28,4.30
2010,01,21,03,29,4.30
2010,01,21,03,30,4.30
2010,01,21,03,31,4.30
2010,01,21,03,32,4.30
2010,01,21,03,33,4.30
2010,01,21,03,34,4.30
2010,01,21,03,35,4.30
2010,01,21,03,36,4.30
2010,01,21,03,37,4.30
2010,01,21,03,38,4.30
2010,01,21,03,39,4.30
2010,01,21,03,40,4.30
2010,01,21,03,41,4.30
2010,01,21,03,42,4.30
2010,01,21,03,43,4.30
2010,01,21,03,44,4.30
2010,01,21,03,45,4.30
2010,01,21,03,46,4.30
2010,01,21,03,47,4.30
2010,01,21,03,48,4.30
2010,01,21,03,49,4.30
2010,01,21,03,50,4.30
2010,01,21,03,51,4.20
2010,01,21,03,52,4.20
2010,01,21,03,53,4.20
2010,01,21,03,54,4.20
2010,01,21,03,55,4.20
2010,01,21,03,56,4.20
2010,01,21,03,57,4.20
2010,01,21,03,58,4.20
2010,01,21,03,59,4.20
2010,01,21,04,00,4.20
2010,01,21,04,01,4.20
2010,01,21,04,02,4.20
2010,01,21,04,03,4.10
2010,01,21,04,04,4.10
2010,01,21,04,05,4.10
2010,01,21,04,06,4.10
2010,01,21,04,07,4.10
2010,01,21,04,08,4.10
2010,01,21,04,09,4.10
2010,01,21,04,10,4.00
2010,01,21,04,11,4.00
2010,01,21,04,12,4.00
2010,01,21,04,13,4.00
2010,01,21,04,14,4.00
2010,01,21,04,15,4.00
2010,01,21,04,16,3.90
2010,01,21,04,17,3.90
2010,01,21,04,18,3.90
2010,01,21,04,19,3.90
2010,01,21,04,20,3.90
2010,01,21,04,21,3.90
2010,01,21,04,22,3.90
2010,01,21,04,23,3.90
2010,01,21,04,24,3.90
2010,01,21,04,25,3.90
2010,01,21,04,26,3.90
2010,01,21,04,27,4.00
2010,01,21,04,28,4.00
2010,01,21,04,29,4.00
2010,01,21,04,30,4.00
2010,01,21,04,31,4.00
2010,01,21,04,32,4.00
2010,01,21,04,33,4.00
2010,01,21,04,34,4.00
2010,01,21,04,35,4.00
2010,01,21,04,36,4.00
2010,01,21,04,37,4.00
2010,01,21,04,38,4.00
2010,01,21,04,39,4.00
2010,01,21,04,40,4.00
2010,01,21,04,41,4.00
2010,01,21,04,42,4.00
2010,01,21,04,43,4.00
2010,01,21,04,44,4.10
2010,01,21,04,45,4.10
2010,01,21,04,46,4.00
2010,01,21,04,47,4.00
2010,01,21,04,48,4.00
2010,01,21,04,49,4.00
2010,01,21,04,50,4.00
2010,01,21,04,51,4.00
2010,01,21,04,52,4.00
2010,01,21,04,53,4.00
2010,01,21,04,54,4.00
2010,01,21,04,55,4.00
2010,01,21,04,56,4.00
2010,01,21,04,57,4.00
2010,01,21,04,58,4.00
2010,01,21,04,59,3.90
2010,01,21,05,00,3.90
2010,01,21,05,01,3.90
2010,01,21,05,02,3.90
2010,01,21,05,03,3.90
2010,01,21,05,04,3.90
2010,01,21,05,05,3.90
2010,01,21,05,06,3.90
2010,01,21,05,07,3.90
2010,01,21,05,08,3.80
2010,01,21,05,09,3.80
2010,01,21,05,10,3.80
2010,01,21,05,11,3.80
2010,01,21,05,12,3.80
2010,01,21,05,13,3.70
2010,01,21,05,14,3.70
2010,01,21,05,15,3.70
2010,01,21,05,16,3.70
2010,01,21,05,17,3.70
2010,01,21,05,18,3.60
2010,01,21,05,19,3.60
2010,01,21,05,20,3.60
2010,01,21,05,21,3.60
2010,01,21,05,22,3.60
2010,01,21,05,23,3.60
2010,01,21,05,24,3.50
2010,01,21,05,25,3.50
2010,01,21,05,26,3.50
2010,01,21,05,27,3.50
2010,01,21,05,28,3.40
2010,01,21,05,29,3.40
2010,01,21,05,30,3.40
2010,01,21,05,31,3.40
2010,01,21,05,32,3.40
2010,01,21,05,33,3.40
2010,01,21,05,34,3.30
2010,01,21,05,35,3.30
2010,01,21,05,36,3.30
2010,01,21,05,37,3.30
2010,01,21,05,38,3.30
2010,01,21,05,39,3.30
2010,01,21,05,40,3.30
2010,01,21,05,41,3.30
2010,01,21,05,42,3.20
2010,01,21,05,43,3.20
2010,01,21,05,44,3.20
2010,01,21,05,45,3.20
2010,01,21,05,46,3.20
2010,01,21,05,47,3.20
2010,01,21,05,48,3.20
2010,01,21,05,49,3.20
2010,01,21,05,50,3.20
2010,01,21,05,51,3.20
2010,01,21,05,52,3.20
2010,01,21,05,53,3.20
2010,01,21,05,54,3.20
2010,01,21,05,55,3.20
2010,01,21,05,56,3.20
2010,01,21,05,57,3.20
2010,01,21,05,58,3.20
2010,01,21,05,59,3.20
2010,01,21,06,00,3.10
2010,01,21,06,01,3.10
2010,01,21,06,02,3.10
2010,01,21,06,03,3.10
2010,01,21,06,04,3.10
2010,01,21,06,05,3.10
2010,01,21,06,06,3.10
2010,01,21,06,07,3.10
2010,01,21,06,08,3.10
2010,01,21,06,09,3.00
2010,01,21,06,10,3.00
2010,01,21,06,11,3.00
2010,01,21,06,12,3.00
2010,01,21,06,13,3.00
2010,01,21,06,14,2.90
2010,01,21,06,15,2.90
2010,01,21,06,16,2.90
2010,01,21,06,17,2.90
2010,01,21,06,18,2.90
2010,01,21,06,19,2.90
2010,01,21,06,20,2.90
2010,01,21,06,21,2.90
2010,01,21,06,22,2.90
2010,01,21,06,23,2.90
2010,01,21,06,24,2.90
2010,01,21,06,25,2.90
2010,01,21,06,26,2.90
2010,01,21,06,27,2.80
2010,01,21,06,28,2.80
2010,01,21,06,29,2.80
2010,01,21,06,30,2.80
2010,01,21,06,31,2.80
2010,01,21,06,32,2.80
2010,01,21,06,33,2.80
2010,01,21,06,34,2.80
2010,01,21,06,35,2.80
2010,01,21,06,36,2.80
2010,01,21,06,37,2.80
2010,01,21,06,38,2.80
2010,01,21,06,39,2.80
2010,01,21,06,40,2.80
2010,01,21,06,41,2.80
2010,01,21,06,42,2.80
2010,01,21,06,43,2.80
2010,01,21,06,44,2.80
2010,01,21,06,45,2.80
2010,01,21,06,46,2.80
2010,01,21,06,47,2.70
2010,01,21,06,48,2.70
2010,01,21,06,49,2.70
2010,01,21,06,50,2.70
2010,01,21,06,51,2.70
2010,01,21,06,52,2.70
2010,01,21,06,53,2.70
2010,01,21,06,54,2.70
2010,01,21,06,55,2.70
2010,01,21,06,56,2.70
2010,01,21,06,57,2.70
2010,01,21,06,58,2.70
2010,01,21,06,59,2.70
2010,01,21,07,00,2.70
2010,01,21,07,01,2.70
2010,01,21,07,02,2.70
2010,01,21,07,03,2.70
2010,01,21,07,04,2.70
2010,01,21,07,05,2.70
2010,01,21,07,06,2.60
2010,01,21,07,07,2.60
2010,01,21,07,08,2.60
2010,01,21,07,09,2.60
2010,01,21,07,10,2.60
2010,01,21,07,11,2.60
2010,01,21,07,12,2.60
2010,01,21,07,13,2.60
2010,01,21,07,14,2.60
2010,01,21,07,15,2.60
2010,01,21,07,16,2.60
2010,01,21,07,17,2.60
2010,01,21,07,18,2.60
2010,01,21,07,19,2.60
2010,01,21,07,20,2.50
2010,01,21,07,21,2.50
2010,01,21,07,22,2.50
2010,01,21,07,23,2.50
2010,01,21,07,24,2.50
2010,01,21,07,25,2.50
2010,01,21,07,26,2.50
2010,01,21,07,27,2.50
2010,01,21,07,28,2.50
2010,01,21,07,29,2.40
2010,01,21,07,30,2.40
2010,01,21,07,31,2.40
2010,01,21,07,32,2.40
2010,01,21,07,33,2.40
2010,01,21,07,34,2.40
2010,01,21,07,35,2.40
2010,01,21,07,36,2.40
2010,01,21,07,37,2.40
2010,01,21,07,38,2.40
2010,01,21,07,39,2.40
2010,01,21,07,40,2.30
2010,01,21,07,41,2.30
2010,01,21,07,42,2.30
2010,01,21,07,43,2.30
2010,01,21,07,44,2.30
2010,01,21,07,45,2.30
2010,01,21,07,46,2.30
2010,01,21,07,47,2.30
2010,01,21,07,48,2.30
2010,01,21,07,49,2.20
2010,01,21,07,50,2.20
2010,01,21,07,51,2.20
2010,01,21,07,52,2.20
2010,01,21,07,53,2.20
2010,01,21,07,54,2.20
2010,01,21,07,55,2.20
2010,01,21,07,56,2.20
2010,01,21,07,57,2.20
2010,01,21,07,58,2.20
2010,01,21,07,59,2.20
2010,01,21,08,00,2.20
2010,01,21,08,01,2.20
2010,01,21,08,02,2.20
2010,01,21,08,03,2.20
2010,01,21,08,04,2.20
2010,01,21,08,05,2.20
2010,01,21,08,06,2.20
2010,01,21,08,07,2.20
2010,01,21,08,08,2.20
2010,01,21,08,09,2.20
2010,01,21,08,10,2.20
2010,01,21,08,11,2.20
2010,01,21,08,12,2.20
2010,01,21,08,13,2.20
2010,01,21,08,14,2.20
2010,01,21,08,15,2.20
2010,01,21,08,16,2.20
2010,01,21,08,17,2.20
2010,01,21,08,18,2.20
2010,01,21,08,19,2.20
2010,01,21,08,20,2.20
2010,01,21,08,21,2.20
2010,01,21,08,22,2.20
2010,01,21,08,23,2.20
2010,01,21,08,24,2.20
2010,01,21,08,25,2.20
2010,01,21,08,26,2.20
2010,01,21,08,27,2.20
2010,01,21,08,28,2.20
2010,01,21,08,29,2.20
2010,01,21,08,30,2.20
2010,01,21,08,31,2.20
2010,01,21,08,32,2.20
2010,01,21,08,33,2.20
2010,01,21,08,34,2.20
2010,01,21,08,35,2.20
2010,01,21,08,36,2.20
2010,01,21,08,37,2.20
2010,01,21,08,38,2.20
2010,01,21,08,39,2.20
2010,01,21,08,40,2.20
2010,01,21,08,41,2.20
2010,01,21,08,42,2.20
2010,01,21,08,43,2.20
2010,01,21,08,44,2.20
2010,01,21,08,45,2.20
2010,01,21,08,46,2.20
2010,01,21,08,47,2.20
2010,01,21,08,48,2.20
2010,01,21,08,49,2.20
2010,01,21,08,50,2.20
2010,01,21,08,51,2.20
2010,01,21,08,52,2.20
2010,01,21,08,53,2.20
2010,01,21,08,54,2.30
2010,01,21,08,55,2.30
2010,01,21,08,56,2.30
2010,01,21,08,57,2.30
2010,01,21,08,58,2.30
2010,01,21,08,59,2.30
2010,01,21,09,00,2.30
2010,01,21,09,01,2.30
2010,01,21,09,02,2.30
2010,01,21,09,03,2.30
2010,01,21,09,04,2.30
2010,01,21,09,05,2.30
2010,01,21,09,06,2.30
2010,01,21,09,07,2.30
2010,01,21,09,08,2.30
2010,01,21,09,09,2.40
2010,01,21,09,10,2.40
2010,01,21,09,11,2.40
2010,01,21,09,12,2.40
2010,01,21,09,13,2.40
2010,01,21,09,14,2.40
2010,01,21,09,15,2.40
2010,01,21,09,16,2.40
2010,01,21,09,17,2.40
2010,01,21,09,18,2.40
2010,01,21,09,19,2.50
2010,01,21,09,20,2.50
2010,01,21,09,21,2.50
2010,01,21,09,22,2.50
2010,01,21,09,23,2.50
2010,01,21,09,24,2.50
2010,01,21,09,25,2.50
2010,01,21,09,26,2.50
2010,01,21,09,27,2.50
2010,01,21,09,28,2.60
2010,01,21,09,29,2.60
2010,01,21,09,30,2.60
2010,01,21,09,31,2.60
2010,01,21,09,32,2.60
2010,01,21,09,33,2.60
2010,01,21,09,34,2.60
2010,01,21,09,35,2.60
2010,01,21,09,36,2.60
2010,01,21,09,37,2.60
2010,01,21,09,38,2.60
2010,01,21,09,39,2.60
2010,01,21,09,40,2.60
2010,01,21,09,41,2.60
2010,01,21,09,42,2.60
2010,01,21,09,43,2.70
2010,01,21,09,44,2.70
2010,01,21,09,45,2.70
2010,01,21,09,46,2.70
2010,01,21,09,47,2.70
2010,01,21,09,48,2.70
2010,01,21,09,49,2.70
2010,01,21,09,50,2.70
2010,01,21,09,51,2.70
2010,01,21,09,52,2.80
2010,01,21,09,53,2.80
2010,01,21,09,54,2.80
2010,01,21,09,55,2.80
2010,01,21,09,56,2.80
2010,01,21,09,57,2.80
2010,01,21,09,58,2.80
2010,01,21,09,59,2.90
2010,01,21,10,00,2.90
2010,01,21,10,01,2.90
2010,01,21,10,02,2.90
2010,01,21,10,03,2.90
2010,01,21,10,04,2.90
2010,01,21,10,05,2.90
2010,01,21,10,06,3.00
2010,01,21,10,07,3.00
2010,01,21,10,08,3.00
2010,01,21,10,09,3.00
2010,01,21,10,10,3.10
2010,01,21,10,11,3.10
2010,01,21,10,12,3.10
2010,01,21,10,13,3.10
2010,01,21,10,14,3.10
2010,01,21,10,15,3.20
2010,01,21,10,16,3.20
2010,01,21,10,17,3.20
2010,01,21,10,18,3.20
2010,01,21,10,19,3.20
2010,01,21,10,20,3.20
2010,01,21,10,21,3.20
2010,01,21,10,22,3.20
2010,01,21,10,23,3.20
2010,01,21,10,24,3.20
2010,01,21,10,25,3.20
2010,01,21,10,26,3.30
2010,01,21,10,27,3.30
2010,01,21,10,28,3.30
2010,01,21,10,29,3.30
2010,01,21,10,30,3.30
2010,01,21,10,31,3.40
2010,01,21,10,32,3.40
2010,01,21,10,33,3.40
2010,01,21,10,34,3.50
2010,01,21,10,35,3.50
2010,01,21,10,36,3.50
2010,01,21,10,37,3.50
2010,01,21,10,38,3.50
2010,01,21,10,39,3.50
2010,01,21,10,40,3.50
2010,01,21,10,41,3.50
2010,01,21,10,42,3.60
2010,01,21,10,43,3.60
2010,01,21,10,44,3.60
2010,01,21,10,45,3.60
2010,01,21,10,46,3.60
2010,01,21,10,47,3.60
2010,01,21,10,48,3.60
2010,01,21,10,49,3.60
2010,01,21,10,50,3.70
2010,01,21,10,51,3.70
2010,01,21,10,52,3.70
2010,01,21,10,53,3.70
2010,01,21,10,54,3.70
2010,01,21,10,55,3.80
2010,01,21,10,56,3.80
2010,01,21,10,57,3.80
2010,01,21,10,58,3.90
2010,01,21,10,59,3.90
2010,01,21,11,00,3.90
2010,01,21,11,01,4.00
2010,01,21,11,02,4.00
2010,01,21,11,03,4.10
2010,01,21,11,04,4.10
2010,01,21,11,05,4.10
2010,01,21,11,06,4.10
2010,01,21,11,07,4.20
2010,01,21,11,08,4.20
2010,01,21,11,09,4.20
2010,01,21,11,10,4.20
2010,01,21,11,11,4.20
2010,01,21,11,12,4.20
2010,01,21,11,13,4.20
2010,01,21,11,14,4.20
2010,01,21,11,15,4.20
2010,01,21,11,16,4.20
2010,01,21,11,17,4.20
2010,01,21,11,18,4.30
2010,01,21,11,19,4.30
2010,01,21,11,20,4.30
2010,01,21,11,21,4.30
2010,01,21,11,22,4.30
2010,01,21,11,23,4.30
2010,01,21,11,24,4.30
2010,01,21,11,25,4.30
2010,01,21,11,26,4.30
2010,01,21,11,27,4.30
2010,01,21,11,28,4.30
2010,01,21,11,29,4.40
2010,01,21,11,30,4.40
2010,01,21,11,31,4.40
2010,01,21,11,32,4.40
2010,01,21,11,33,4.40
2010,01,21,11,34,4.50
2010,01,21,11,35,4.50
2010,01,21,11,36,4.50
2010,01,21,11,37,4.60
2010,01,21,11,38,4.60
2010,01,21,11,39,4.60
2010,01,21,11,40,4.60
2010,01,21,11,41,4.60
2010,01,21,11,42,4.60
2010,01,21,11,43,4.60
2010,01,21,11,44,4.60
2010,01,21,11,45,4.60
2010,01,21,11,46,4.60
2010,01,21,11,47,4.60
2010,01,21,11,48,4.60
2010,01,21,11,49,4.60
2010,01,21,11,50,4.60
2010,01,21,11,51,4.50
2010,01,21,11,52,4.50
2010,01,21,11,53,4.50
2010,01,21,11,54,4.50
2010,01,21,11,55,4.50
2010,01,21,11,56,4.50
2010,01,21,11,57,4.50
2010,01,21,11,58,4.50
2010,01,21,11,59,4.50
2010,01,21,12,00,4.50
2010,01,21,12,01,4.50
2010,01,21,12,02,4.50
2010,01,21,12,03,4.60
2010,01,21,12,04,4.60
2010,01,21,12,05,4.60
2010,01,21,12,06,4.60
2010,01,21,12,07,4.60
2010,01,21,12,08,4.60
2010,01,21,12,09,4.70
2010,01,21,12,10,4.70
2010,01,21,12,11,4.70
2010,01,21,12,12,4.70
2010,01,21,12,13,4.70
2010,01,21,12,14,4.70
2010,01,21,12,15,4.70
2010,01,21,12,16,4.70
2010,01,21,12,17,4.80
2010,01,21,12,18,4.80
2010,01,21,12,19,4.80
2010,01,21,12,20,4.80
2010,01,21,12,21,4.80
2010,01,21,12,22,4.90
2010,01,21,12,23,4.90
2010,01,21,12,24,4.90
2010,01,21,12,25,5.00
2010,01,21,12,26,5.00
2010,01,21,12,27,5.10
2010,01,21,12,28,5.10
2010,01,21,12,29,5.10
2010,01,21,12,30,5.10
2010,01,21,12,31,5.20
2010,01,21,12,32,5.20
2010,01,21,12,33,5.20
2010,01,21,12,34,5.30
2010,01,21,12,35,5.30
2010,01,21,12,36,5.40
2010,01,21,12,37,5.40
2010,01,21,12,38,5.50
2010,01,21,12,39,5.50
2010,01,21,12,40,5.60
2010,01,21,12,41,5.60
2010,01,21,12,42,5.70
2010,01,21,12,43,5.70
2010,01,21,12,44,5.80
2010,01,21,12,45,5.80
2010,01,21,12,46,5.90
2010,01,21,12,47,5.90
2010,01,21,12,48,5.90
2010,01,21,12,49,5.90
2010,01,21,12,50,6.00
2010,01,21,12,51,6.00
2010,01,21,12,52,6.00
2010,01,21,12,53,6.10
2010,01,21,12,54,6.10
2010,01,21,12,55,6.10
2010,01,21,12,56,6.10
2010,01,21,12,57,6.10
2010,01,21,12,58,6.20
2010,01,21,12,59,6.20
2010,01,21,13,00,6.20
2010,01,21,13,01,6.20
2010,01,21,13,02,6.20
2010,01,21,13,03,6.20
2010,01,21,13,04,6.20
2010,01,21,13,05,6.30
2010,01,21,13,06,6.30
2010,01,21,13,07,6.30
2010,01,21,13,08,6.30
2010,01,21,13,09,6.30
2010,01,21,13,10,6.30
2010,01,21,13,11,6.40
2010,01,21,13,12,6.40
2010,01,21,13,13,6.40
2010,01,21,13,14,6.50
2010,01,21,13,15,6.50
2010,01,21,13,16,6.50
2010,01,21,13,17,6.50
2010,01,21,13,18,6.60
2010,01,21,13,19,6.60
2010,01,21,13,20,6.60
2010,01,21,13,21,6.60
2010,01,21,13,22,6.70
2010,01,21,13,23,6.70
2010,01,21,13,24,6.70
2010,01,21,13,25,6.70
2010,01,21,13,26,6.70
2010,01,21,13,27,6.70
2010,01,21,13,28,6.80
2010,01,21,13,29,6.80
2010,01,21,13,30,6.80
2010,01,21,13,31,6.80
2010,01,21,13,32,6.90
2010,01,21,13,33,6.90
2010,01,21,13,34,6.90
2010,01,21,13,35,7.00
2010,01,21,13,36,7.00
2010,01,21,13,37,7.00
2010,01,21,13,38,7.10
2010,01,21,13,39,7.10
2010,01,21,13,40,7.10
2010,01,21,13,41,7.10
2010,01,21,13,42,7.20
2010,01,21,13,43,7.20
2010,01,21,13,44,7.20
2010,01,21,13,45,7.20
2010,01,21,13,46,7.20
2010,01,21,13,47,7.30
2010,01,21,13,48,7.30
2010,01,21,13,49,7.30
2010,01,21,13,50,7.30
2010,01,21,13,51,7.30
2010,01,21,13,52,7.30
2010,01,21,13,53,7.30
2010,01,21,13,54,7.30
2010,01,21,13,55,7.30
2010,01,21,13,56,7.30
2010,01,21,13,57,7.30
2010,01,21,13,58,7.30
2010,01,21,13,59,7.30
2010,01,21,14,00,7.30
2010,01,21,14,01,7.30
2010,01,21,14,02,7.30
2010,01,21,14,03,7.30
2010,01,21,14,04,7.20
2010,01,21,14,05,7.20
2010,01,21,14,06,7.20
2010,01,21,14,07,7.20
2010,01,21,14,08,7.20
2010,01,21,14,09,7.20
2010,01,21,14,10,7.20
2010,01,21,14,11,7.20
2010,01,21,14,12,7.20
2010,01,21,14,13,7.20
2010,01,21,14,14,7.20
2010,01,21,14,15,7.20
2010,01,21,14,16,7.20
2010,01,21,14,17,7.20
2010,01,21,14,18,7.20
2010,01,21,14,19,7.30
2010,01,21,14,20,7.30
2010,01,21,14,21,7.40
2010,01,21,14,22,7.40
2010,01,21,14,23,7.50
2010,01,21,14,24,7.50
2010,01,21,14,25,7.60
2010,01,21,14,26,7.60
2010,01,21,14,27,7.70
2010,01,21,14,28,7.80
2010,01,21,14,29,7.90
2010,01,21,14,30,8.00
2010,01,21,14,31,8.10
2010,01,21,14,32,8.10
2010,01,21,14,33,8.20
2010,01,21,14,34,8.30
2010,01,21,14,35,8.40
2010,01,21,14,36,8.50
2010,01,21,14,37,8.60
2010,01,21,14,38,8.70
2010,01,21,14,39,8.70
2010,01,21,14,40,8.80
2010,01,21,14,41,8.80
2010,01,21,14,42,8.80
2010,01,21,14,43,8.90
2010,01,21,14,44,8.80
2010,01,21,14,45,8.80
2010,01,21,14,46,8.80
2010,01,21,14,47,8.80
2010,01,21,14,48,8.80
2010,01,21,14,49,8.70
2010,01,21,14,50,8.70
2010,01,21,14,51,8.70
2010,01,21,14,52,8.60
2010,01,21,14,53,8.60
2010,01,21,14,54,8.60
2010,01,21,14,55,8.60
2010,01,21,14,56,8.50
2010,01,21,14,57,8.50
2010,01,21,14,58,8.40
2010,01,21,14,59,8.40
2010,01,21,15,00,8.40
2010,01,21,15,01,8.30
2010,01,21,15,02,8.30
2010,01,21,15,03,8.30
2010,01,21,15,04,8.30
2010,01,21,15,05,8.20
2010,01,21,15,06,8.20
2010,01,21,15,07,8.20
2010,01,21,15,08,8.20
2010,01,21,15,09,8.10
2010,01,21,15,10,8.10
2010,01,21,15,11,8.10
2010,01,21,15,12,8.00
2010,01,21,15,13,8.00
2010,01,21,15,14,7.90
2010,01,21,15,15,7.90
2010,01,21,15,16,7.80
2010,01,21,15,17,7.80
2010,01,21,15,18,7.80
2010,01,21,15,19,7.80
2010,01,21,15,20,7.70
2010,01,21,15,21,7.70
2010,01,21,15,22,7.70
2010,01,21,15,23,7.70
2010,01,21,15,24,7.60
2010,01,21,15,25,7.60
2010,01,21,15,26,7.60
2010,01,21,15,27,7.50
2010,01,21,15,28,7.50
2010,01,21,15,29,7.50
2010,01,21,15,30,7.40
2010,01,21,15,31,7.40
2010,01,21,15,32,7.40
2010,01,21,15,33,7.40
2010,01,21,15,34,7.40
2010,01,21,15,35,7.40
2010,01,21,15,36,7.40
2010,01,21,15,37,7.40
2010,01,21,15,38,7.30
2010,01,21,15,39,7.30
2010,01,21,15,40,7.30
2010,01,21,15,41,7.30
2010,01,21,15,42,7.30
2010,01,21,15,43,7.30
2010,01,21,15,44,7.20
2010,01,21,15,45,7.20
2010,01,21,15,46,7.20
2010,01,21,15,47,7.20
2010,01,21,15,48,7.20
2010,01,21,15,49,7.20
2010,01,21,15,50,7.20
2010,01,21,15,51,7.20
2010,01,21,15,52,7.20
2010,01,21,15,53,7.20
2010,01,21,15,54,7.10
2010,01,21,15,55,7.10
2010,01,21,15,56,7.10
2010,01,21,15,57,7.10
2010,01,21,15,58,7.00
2010,01,21,15,59,7.00
2010,01,21,16,00,7.00
2010,01,21,16,01,6.90
2010,01,21,16,02,6.90
2010,01,21,16,03,6.90
2010,01,21,16,04,6.90
2010,01,21,16,05,6.80
2010,01,21,16,06,6.80
2010,01,21,16,07,6.80
2010,01,21,16,08,6.70
2010,01,21,16,09,6.70
2010,01,21,16,10,6.70
2010,01,21,16,11,6.60
2010,01,21,16,12,6.60
2010,01,21,16,13,6.60
2010,01,21,16,14,6.60
2010,01,21,16,15,6.50
2010,01,21,16,16,6.50
2010,01,21,16,17,6.50
2010,01,21,16,18,6.40
2010,01,21,16,19,6.40
2010,01,21,16,20,6.40
2010,01,21,16,21,6.40
2010,01,21,16,22,6.40
2010,01,21,16,23,6.30
2010,01,21,16,24,6.30
2010,01,21,16,25,6.30
2010,01,21,16,26,6.30
2010,01,21,16,27,6.30
2010,01,21,16,28,6.30
2010,01,21,16,29,6.30
2010,01,21,16,30,6.30
2010,01,21,16,31,6.30
2010,01,21,16,32,6.20
2010,01,21,16,33,6.20
2010,01,21,16,34,6.20
2010,01,21,16,35,6.20
2010,01,21,16,36,6.20
2010,01,21,16,37,6.20
2010,01,21,16,38,6.20
2010,01,21,16,39,6.20
2010,01,21,16,40,6.20
2010,01,21,16,41,6.10
2010,01,21,16,42,6.10
2010,01,21,16,43,6.10
2010,01,21,16,44,6.10
2010,01,21,16,45,6.10
2010,01,21,16,46,6.10
2010,01,21,16,47,6.10
2010,01,21,16,48,6.10
2010,01,21,16,49,6.00
2010,01,21,16,50,6.00
2010,01,21,16,51,6.00
2010,01,21,16,52,6.00
2010,01,21,16,53,5.90
2010,01,21,16,54,5.90
2010,01,21,16,55,5.90
2010,01,21,16,56,5.90
2010,01,21,16,57,5.90
2010,01,21,16,58,5.90
2010,01,21,16,59,5.80
2010,01,21,17,00,5.80
2010,01,21,17,01,5.80
2010,01,21,17,02,5.80
2010,01,21,17,03,5.80
2010,01,21,17,04,5.80
2010,01,21,17,05,5.80
2010,01,21,17,06,5.80
2010,01,21,17,07,5.80
2010,01,21,17,08,5.80
2010,01,21,17,09,5.80
2010,01,21,17,10,5.80
2010,01,21,17,11,5.70
2010,01,21,17,12,5.80
2010,01,21,17,13,5.70
2010,01,21,17,14,5.70
2010,01,21,17,15,5.70
2010,01,21,17,16,5.70
2010,01,21,17,17,5.70
2010,01,21,17,18,5.70
2010,01,21,17,19,5.70
2010,01,21,17,20,5.70
2010,01,21,17,21,5.70
2010,01,21,17,22,5.70
2010,01,21,17,23,5.70
2010,01,21,17,24,5.70
2010,01,21,17,25,5.70
2010,01,21,17,26,5.70
2010,01,21,17,27,5.70
2010,01,21,17,28,5.70
2010,01,21,17,29,5.70
2010,01,21,17,30,5.70
2010,01,21,17,31,5.70
2010,01,21,17,32,5.70
2010,01,21,17,33,5.70
2010,01,21,17,34,5.70
2010,01,21,17,35,5.70
2010,01,21,17,36,5.70
2010,01,21,17,37,5.70
2010,01,21,17,38,5.70
2010,01,21,17,39,5.70
2010,01,21,17,40,5.70
2010,01,21,17,41,5.70
2010,01,21,17,42,5.60
2010,01,21,17,43,5.60
2010,01,21,17,44,5.60
2010,01,21,17,45,5.60
2010,01,21,17,46,5.60
2010,01,21,17,47,5.60
2010,01,21,17,48,5.60
2010,01,21,17,49,5.60
2010,01,21,17,50,5.50
2010,01,21,17,51,5.50
2010,01,21,17,52,5.50
2010,01,21,17,53,5.50
2010,01,21,17,54,5.40
2010,01,21,17,55,5.40
2010,01,21,17,56,5.40
2010,01,21,17,57,5.40
2010,01,21,17,58,5.40
2010,01,21,17,59,5.40
2010,01,21,18,00,5.40
2010,01,21,18,01,5.30
2010,01,21,18,02,5.30
2010,01,21,18,03,5.30
2010,01,21,18,04,5.30
2010,01,21,18,05,5.30
2010,01,21,18,06,5.30
2010,01,21,18,07,5.30
2010,01,21,18,08,5.30
2010,01,21,18,09,5.30
2010,01,21,18,10,5.30
2010,01,21,18,11,5.30
2010,01,21,18,12,5.30
2010,01,21,18,13,5.30
2010,01,21,18,14,5.30
2010,01,21,18,15,5.20
2010,01,21,18,16,5.20
2010,01,21,18,17,5.20
2010,01,21,18,18,5.20
2010,01,21,18,19,5.20
2010,01,21,18,20,5.20
2010,01,21,18,21,5.20
2010,01,21,18,22,5.20
2010,01,21,18,23,5.20
2010,01,21,18,24,5.20
2010,01,21,18,25,5.20
2010,01,21,18,26,5.20
2010,01,21,18,27,5.20
2010,01,21,18,28,5.20
2010,01,21,18,29,5.20
2010,01,21,18,30,5.20
2010,01,21,18,31,5.20
2010,01,21,18,32,5.20
2010,01,21,18,33,5.20
2010,01,21,18,34,5.20
2010,01,21,18,35,5.20
2010,01,21,18,36,5.20
2010,01,21,18,37,5.20
2010,01,21,18,38,5.20
2010,01,21,18,39,5.20
2010,01,21,18,40,5.20
2010,01,21,18,41,5.10
2010,01,21,18,42,5.10
2010,01,21,18,43,5.10
2010,01,21,18,44,5.10
2010,01,21,18,45,5.10
2010,01,21,18,46,5.10
2010,01,21,18,47,5.10
2010,01,21,18,48,5.10
2010,01,21,18,49,5.00
2010,01,21,18,50,5.00
2010,01,21,18,51,5.00
2010,01,21,18,52,5.00
2010,01,21,18,53,4.90
2010,01,21,18,54,4.90
2010,01,21,18,55,4.90
2010,01,21,18,56,4.90
2010,01,21,18,57,4.90
2010,01,21,18,58,4.90
2010,01,21,18,59,4.80
2010,01,21,19,00,4.80
2010,01,21,19,01,4.80
2010,01,21,19,02,4.80
2010,01,21,19,03,4.80
2010,01,21,19,04,4.80
2010,01,21,19,05,4.80
2010,01,21,19,06,4.70